TECHEDSAT 8 (44032 NORAD) Tracking and Keplerian Element Data

This shows tracking and keplerian element data for the satellite.

Feedback or suggestion? Click here.




ElementValue
Catalog44032
NameTECHEDSAT 8
Epoch Orbit6974
Epoch Day111.15468586
Epoch Year2020
RAAN221.1148
Inclination51.6107
Eccentricity0.0008059
Argument of Perigee315.3167
Mean Anonmoly44.7209
Mean Motion16.40789031
Decay Rate0.13178104
L11 44032U 98067PY 20111.15468586 .13178104 12516-4 85387-3 0 9999
L22 44032 51.6107 221.1148 0008059 315.3167 44.7209 16.40789031 69743



Live tracking and technical data element details for TECHEDSAT 8 (NORAD 44032). TECHEDSAT 8 can be tracked NOW for your location showing map with azimuth and elevation plus other details from your city location.







IsCatalogInMostPopularTable: catalog: 44032, numindb: 361
Update: records affected: 1



GetName: 44032 TECHEDSAT 8

Hit Count: updated at: Fri, 16 May 2025 10:42:04 GMT